Regional Weather Roundup
Issued by NWS

Home | Current Version | Previous Version | Graphics & Text | Print | Product List | Glossary Off
Versions: 1 2 3 4 5 6 7 8 9 10 11 12 13 14 15 16 17 18 19 20 21 22 23 24 25 26 27 28 29 30 31 32 33 34 35 36 37 38 39 40 41 42 43 44 45 46 47 48 49 50

000
ASUS43 KTOP 011508
RWRKS

WEATHER ROUNDUP FOR KANSAS
NATIONAL WEATHER SERVICE GOODLAND KS
1000 AM CDT WED OCT 01 2014

NOTE:  "FAIR" INDICATES FEW OR NO CLOUDS BELOW 12,000 FEET WITH NO
SIGNIFICANT WEATHER AND/OR OBSTRUCTIONS TO VISIBILITY.

KSZ001>006-013>018-027>032-041>047-011600-
NORTHWEST KANSAS

CITY           SKY/WX    TMP DP  RH WIND       PRES   REMARKS
GOODLAND       SUNNY     60  46  59 N8        29.87S
HAYS           CLOUDY    61  57  88 NE7       29.79S
HILL CITY      CLOUDY    62  60  93 NE5       29.80S
RUSSELL        FOG       63  62  97 N8        29.77R VSB 3/4
$$

KSZ061>065-074>080-084>089-011600-
SOUTHWEST KANSAS

CITY           SKY/WX    TMP DP  RH WIND       PRES   REMARKS
DODGE CITY     SUNNY     67  45  45 N7        29.78R
GARDEN CITY    SUNNY     64  48  56 N10       29.80R
GREAT BEND     SUNNY     61  55  82 N5        29.77S
LIBERAL        SUNNY     66  46  48 N17       29.81R
PRATT          SUNNY     70  61  73 S6        29.76R
$$

KSZ066>073-081>083-090>101-011600-
SOUTHEAST KANSAS

CITY           SKY/WX    TMP DP  RH WIND       PRES   REMARKS
CHANUTE        CLOUDY    70  66  87 SE8       29.78F
COFFEYVILLE    MOSUNNY   77  67  71 S14       29.77S
HUTCHINSON     SUNNY     74  65  73 S8        29.75S
MEDICINE LODGE   N/A     72  64  76 SE8       29.73S
NEWTON         SUNNY     73  63  68 S10       29.77S
PARSONS        LGT RAIN  77  67  71 S13G20    29.79F
WICHITA INTL   MOSUNNY   78  64  61 S16       29.73F
WICHITA JABRA  SUNNY     78  63  59 S14       29.74S
WICHITA MCCONL SUNNY     77  64  64 S16       29.75R
WINFIELD       SUNNY     74  68  81 SE15      29.76S
$$

KSZ007>012-019>026-033>040-048>060-102>105-011600-
NORTHEAST KANSAS

CITY           SKY/WX    TMP DP  RH WIND       PRES   REMARKS
CONCORDIA      CLOUDY    66  65  96 N5        29.77S
EMPORIA        PTSUNNY   72  66  81 S6        29.78R
LAWRENCE       PTSUNNY   69  64  84 E7        29.77S HAZE
MANHATTAN      SUNNY     73  67  81 SW9       29.75R
MARYSVILLE     CLOUDY    68  64  88 W5        29.76R
OLATHE IND     CLOUDY    68  64  87 S8        29.78F
OLATHE EXE     LGT RAIN  71  64  78 S9        29.77F
SALINA         MOSUNNY   72  65  78 NW8       29.76R
TOPEKA BILLARD PTSUNNY   72  67  84 S7        29.76R
TOPEKA FORBES  PTSUNNY   70  65  84 S12       29.76R
$$



USA.gov is the U.S. government's official web portal to all federal, state and local government web resources and services.